Year,Month,Day,Hour,Minute,Value (Times are PST for temperature in C)
2015,10,22,00,01,10.60
2015,10,22,00,02,10.60
2015,10,22,00,03,10.60
2015,10,22,00,04,10.60
2015,10,22,00,06,10.60
2015,10,22,00,07,10.60
2015,10,22,00,09,10.70
2015,10,22,00,11,10.70
2015,10,22,00,12,10.70
2015,10,22,00,13,10.70
2015,10,22,00,14,10.80
2015,10,22,00,16,10.80
2015,10,22,00,17,10.80
2015,10,22,00,18,10.80
2015,10,22,00,19,10.80
2015,10,22,00,21,10.70
2015,10,22,00,22,10.70
2015,10,22,00,23,10.70
2015,10,22,00,24,10.70
2015,10,22,00,26,10.70
2015,10,22,00,27,10.70
2015,10,22,00,28,10.70
2015,10,22,00,29,10.60
2015,10,22,00,31,10.60
2015,10,22,00,32,10.60
2015,10,22,00,33,10.60
2015,10,22,00,34,10.60
2015,10,22,00,36,10.60
2015,10,22,00,37,10.60
2015,10,22,00,38,10.60
2015,10,22,00,39,10.60
2015,10,22,00,41,10.60
2015,10,22,00,42,10.60
2015,10,22,00,43,10.60
2015,10,22,00,44,10.60
2015,10,22,00,46,10.60
2015,10,22,00,47,10.60
2015,10,22,00,48,10.60
2015,10,22,00,49,10.60
2015,10,22,00,51,10.60
2015,10,22,00,52,10.60
2015,10,22,00,53,10.60
2015,10,22,00,54,10.60
2015,10,22,00,56,10.60
2015,10,22,00,57,10.60
2015,10,22,00,58,10.60
2015,10,22,00,59,10.60
2015,10,22,01,01,10.60
2015,10,22,01,02,10.60
2015,10,22,01,03,10.60
2015,10,22,01,04,10.60
2015,10,22,01,06,10.60
2015,10,22,01,07,10.60
2015,10,22,01,08,10.60
2015,10,22,01,09,10.60
2015,10,22,01,11,10.60
2015,10,22,01,12,10.60
2015,10,22,01,13,10.60
2015,10,22,01,14,10.60
2015,10,22,01,15,10.60
2015,10,22,01,16,10.60
2015,10,22,01,17,10.60
2015,10,22,01,18,10.60
2015,10,22,01,19,10.60
2015,10,22,01,20,10.60
2015,10,22,01,21,10.60
2015,10,22,01,22,10.60
2015,10,22,01,23,10.60
2015,10,22,01,24,10.60
2015,10,22,01,25,10.60
2015,10,22,01,26,10.60
2015,10,22,01,27,10.60
2015,10,22,01,28,10.60
2015,10,22,01,29,10.60
2015,10,22,01,30,10.60
2015,10,22,01,31,10.60
2015,10,22,01,32,10.60
2015,10,22,01,33,10.60
2015,10,22,01,34,10.60
2015,10,22,01,35,10.60
2015,10,22,01,36,10.60
2015,10,22,01,37,10.60
2015,10,22,01,38,10.60
2015,10,22,01,39,10.60
2015,10,22,01,40,10.60
2015,10,22,01,42,10.60
2015,10,22,01,43,10.60
2015,10,22,01,44,10.60
2015,10,22,01,46,10.60
2015,10,22,01,47,10.60
2015,10,22,01,48,10.60
2015,10,22,01,49,10.60
2015,10,22,01,51,10.60
2015,10,22,01,52,10.40
2015,10,22,01,53,10.40
2015,10,22,01,54,10.40
2015,10,22,01,56,10.40
2015,10,22,01,57,10.40
2015,10,22,01,58,10.40
2015,10,22,01,59,10.40
2015,10,22,02,01,10.40
2015,10,22,02,02,10.40
2015,10,22,02,03,10.40
2015,10,22,02,04,10.40
2015,10,22,02,06,10.60
2015,10,22,02,07,10.60
2015,10,22,02,08,10.60
2015,10,22,02,09,10.60
2015,10,22,02,11,10.60
2015,10,22,02,12,10.60
2015,10,22,02,13,10.70
2015,10,22,02,14,10.70
2015,10,22,02,16,10.70
2015,10,22,02,17,10.60
2015,10,22,02,18,10.60
2015,10,22,02,19,10.60
2015,10,22,02,21,10.60
2015,10,22,02,22,10.40
2015,10,22,02,23,10.40
2015,10,22,02,24,10.40
2015,10,22,02,26,10.30
2015,10,22,02,27,10.30
2015,10,22,02,28,10.30
2015,10,22,02,29,10.20
2015,10,22,02,31,10.20
2015,10,22,02,32,10.20
2015,10,22,02,33,10.10
2015,10,22,02,34,10.10
2015,10,22,02,36,10.10
2015,10,22,02,37,10.10
2015,10,22,02,38,10.10
2015,10,22,02,39,10.10
2015,10,22,02,41,10.10
2015,10,22,02,42,10.20
2015,10,22,02,43,10.20
2015,10,22,02,44,10.20
2015,10,22,02,46,10.20
2015,10,22,02,47,10.20
2015,10,22,02,48,10.20
2015,10,22,02,49,10.20
2015,10,22,02,51,10.20
2015,10,22,02,52,10.20
2015,10,22,02,53,10.20
2015,10,22,02,54,10.20
2015,10,22,02,56,10.20
2015,10,22,02,57,10.20
2015,10,22,02,58,10.20
2015,10,22,02,59,10.20
2015,10,22,03,01,10.20
2015,10,22,03,02,10.20
2015,10,22,03,03,10.20
2015,10,22,03,04,10.20
2015,10,22,03,06,10.20
2015,10,22,03,07,10.20
2015,10,22,03,08,10.20
2015,10,22,03,09,10.20
2015,10,22,03,11,10.20
2015,10,22,03,12,10.20
2015,10,22,03,13,10.20
2015,10,22,03,14,10.20
2015,10,22,03,16,10.20
2015,10,22,03,17,10.20
2015,10,22,03,18,10.10
2015,10,22,03,19,10.10
2015,10,22,03,21,10.10
2015,10,22,03,22,10.10
2015,10,22,03,23,10.10
2015,10,22,03,24,10.10
2015,10,22,03,25,10.10
2015,10,22,03,26,10.10
2015,10,22,03,27,10.10
2015,10,22,03,28,10.10
2015,10,22,03,29,10.10
2015,10,22,03,30,10.10
2015,10,22,03,31,10.10
2015,10,22,03,32,10.10
2015,10,22,03,33,10.10
2015,10,22,03,34,10.10
2015,10,22,03,35,10.10
2015,10,22,03,36,10.10
2015,10,22,03,37,10.10
2015,10,22,03,38,10.10
2015,10,22,03,39,10.10
2015,10,22,03,40,10.10
2015,10,22,03,41,10.20
2015,10,22,03,42,10.20
2015,10,22,03,43,10.20
2015,10,22,03,44,10.20
2015,10,22,03,45,10.20
2015,10,22,03,46,10.20
2015,10,22,03,47,10.20
2015,10,22,03,48,10.20
2015,10,22,03,49,10.20
2015,10,22,03,50,10.20
2015,10,22,03,51,10.20
2015,10,22,03,52,10.20
2015,10,22,03,54,10.10
2015,10,22,03,56,10.10
2015,10,22,03,57,10.10
2015,10,22,03,58,10.10
2015,10,22,03,59,10.10
2015,10,22,04,01,10.10
2015,10,22,04,02,10.10
2015,10,22,04,03,10.10
2015,10,22,04,04,10.10
2015,10,22,04,06,10.10
2015,10,22,04,07,10.10
2015,10,22,04,08,10.10
2015,10,22,04,09,10.10
2015,10,22,04,11,10.10
2015,10,22,04,12,10.10
2015,10,22,04,13,10.10
2015,10,22,04,14,10.10
2015,10,22,04,16,10.10
2015,10,22,04,17,10.10
2015,10,22,04,18,10.10
2015,10,22,04,19,9.90
2015,10,22,04,21,9.90
2015,10,22,04,22,9.90
2015,10,22,04,23,9.90
2015,10,22,04,24,9.80
2015,10,22,04,26,9.70
2015,10,22,04,27,9.70
2015,10,22,04,28,9.70
2015,10,22,04,29,9.60
2015,10,22,04,31,9.60
2015,10,22,04,32,9.50
2015,10,22,04,33,9.50
2015,10,22,04,34,9.50
2015,10,22,04,36,9.40
2015,10,22,04,37,9.40
2015,10,22,04,38,9.30
2015,10,22,04,39,9.30
2015,10,22,04,41,9.30
2015,10,22,04,42,9.20
2015,10,22,04,43,9.20
2015,10,22,04,44,9.20
2015,10,22,04,46,9.20
2015,10,22,04,47,9.20
2015,10,22,04,48,9.20
2015,10,22,04,49,9.20
2015,10,22,04,51,9.20
2015,10,22,04,52,9.20
2015,10,22,04,53,9.10
2015,10,22,04,54,9.10
2015,10,22,04,56,9.10
2015,10,22,04,57,9.10
2015,10,22,04,58,9.10
2015,10,22,04,59,9.10
2015,10,22,05,01,9.00
2015,10,22,05,02,9.00
2015,10,22,05,03,9.00
2015,10,22,05,04,9.00
2015,10,22,05,06,8.90
2015,10,22,05,07,8.90
2015,10,22,05,08,8.90
2015,10,22,05,09,8.90
2015,10,22,05,11,8.90
2015,10,22,05,12,8.90
2015,10,22,05,13,8.90
2015,10,22,05,14,8.90
2015,10,22,05,16,8.90
2015,10,22,05,17,8.90
2015,10,22,05,18,8.80
2015,10,22,05,19,8.80
2015,10,22,05,21,8.80
2015,10,22,05,22,8.70
2015,10,22,05,23,8.70
2015,10,22,05,24,8.70
2015,10,22,05,26,8.70
2015,10,22,05,27,8.70
2015,10,22,05,28,8.70
2015,10,22,05,29,8.70
2015,10,22,06,22,8.20
2015,10,22,06,23,8.20
2015,10,22,06,24,8.20
2015,10,22,06,26,8.20
2015,10,22,06,28,8.20
2015,10,22,06,29,8.20
2015,10,22,06,31,8.20
2015,10,22,06,32,8.20
2015,10,22,06,33,8.20
2015,10,22,06,34,8.20
2015,10,22,06,36,8.20
2015,10,22,06,37,8.20
2015,10,22,06,38,8.20
2015,10,22,06,39,8.20
2015,10,22,06,41,8.20
2015,10,22,06,42,8.20
2015,10,22,06,43,8.20
2015,10,22,06,44,8.20
2015,10,22,06,46,8.20
2015,10,22,06,47,8.20
2015,10,22,06,48,8.20
2015,10,22,06,49,8.20
2015,10,22,06,51,8.10
2015,10,22,06,52,8.10
2015,10,22,06,53,8.10
2015,10,22,06,54,8.10
2015,10,22,06,56,8.20
2015,10,22,06,57,8.20
2015,10,22,06,58,8.20
2015,10,22,06,59,8.20
2015,10,22,07,01,8.20
2015,10,22,07,02,8.20
2015,10,22,07,03,8.20
2015,10,22,07,04,8.20
2015,10,22,07,05,8.20
2015,10,22,07,07,8.20
2015,10,22,07,08,8.20
2015,10,22,07,09,8.10
2015,10,22,07,11,8.10
2015,10,22,07,12,8.10
2015,10,22,07,13,8.10
2015,10,22,07,14,8.10
2015,10,22,07,16,8.10
2015,10,22,07,17,8.10
2015,10,22,07,18,8.10
2015,10,22,07,19,8.00
2015,10,22,07,21,8.00
2015,10,22,07,22,8.00
2015,10,22,07,23,8.00
2015,10,22,07,24,8.00
2015,10,22,07,26,8.00
2015,10,22,07,27,7.90
2015,10,22,07,28,7.90
2015,10,22,07,29,7.90
2015,10,22,07,31,8.00
2015,10,22,07,32,8.00
2015,10,22,07,33,8.00
2015,10,22,07,34,8.00
2015,10,22,07,36,8.10
2015,10,22,07,37,8.10
2015,10,22,07,38,8.10
2015,10,22,07,39,8.10
2015,10,22,07,41,8.20
2015,10,22,07,42,8.20
2015,10,22,07,43,8.30
2015,10,22,07,44,8.30
2015,10,22,07,46,8.50
2015,10,22,07,47,8.50
2015,10,22,07,48,8.60
2015,10,22,07,49,8.60
2015,10,22,07,51,8.70
2015,10,22,07,52,8.70
2015,10,22,07,53,8.70
2015,10,22,07,54,8.70
2015,10,22,07,56,8.80
2015,10,22,07,57,8.90
2015,10,22,07,58,8.90
2015,10,22,07,59,8.90
2015,10,22,08,01,9.00
2015,10,22,08,02,9.00
2015,10,22,08,03,9.00
2015,10,22,08,04,9.00
2015,10,22,08,06,9.10
2015,10,22,08,07,9.10
2015,10,22,08,08,9.10
2015,10,22,08,09,9.20
2015,10,22,08,11,9.20
2015,10,22,08,12,9.20
2015,10,22,08,13,9.20
2015,10,22,08,14,9.20
2015,10,22,08,15,9.20
2015,10,22,08,16,9.20
2015,10,22,08,17,9.20
2015,10,22,08,18,9.20
2015,10,22,08,19,9.20
2015,10,22,08,21,9.20
2015,10,22,08,22,9.20
2015,10,22,08,23,9.20
2015,10,22,08,24,9.20
2015,10,22,08,25,9.20
2015,10,22,08,26,9.20
2015,10,22,08,27,9.20
2015,10,22,08,28,9.20
2015,10,22,08,29,9.20
2015,10,22,08,30,9.20
2015,10,22,08,31,9.20
2015,10,22,08,32,9.20
2015,10,22,08,33,9.20
2015,10,22,08,34,9.20
2015,10,22,08,35,9.20
2015,10,22,08,36,9.20
2015,10,22,08,37,9.20
2015,10,22,08,38,9.20
2015,10,22,08,39,9.20
2015,10,22,08,40,9.20
2015,10,22,08,41,9.20
2015,10,22,08,42,9.20
2015,10,22,08,43,9.20
2015,10,22,08,44,9.20
2015,10,22,08,46,9.20
2015,10,22,08,48,9.20
2015,10,22,08,49,9.20
2015,10,22,08,51,9.20
2015,10,22,08,53,9.20
2015,10,22,08,54,9.30
2015,10,22,08,56,9.30
2015,10,22,08,57,9.30
2015,10,22,08,58,9.40
2015,10,22,08,59,9.40
2015,10,22,09,01,9.40
2015,10,22,09,02,9.40
2015,10,22,09,03,9.50
2015,10,22,09,04,9.50
2015,10,22,09,06,9.50
2015,10,22,09,07,9.50
2015,10,22,09,08,9.60
2015,10,22,09,09,9.60
2015,10,22,09,11,9.60
2015,10,22,09,12,9.60
2015,10,22,09,13,9.70
2015,10,22,09,14,9.70
2015,10,22,09,16,9.70
2015,10,22,09,17,9.70
2015,10,22,09,18,9.70
2015,10,22,09,19,9.80
2015,10,22,09,21,9.80
2015,10,22,09,22,9.80
2015,10,22,09,23,9.90
2015,10,22,09,24,9.90
2015,10,22,09,26,9.90
2015,10,22,09,27,9.90
2015,10,22,09,28,9.90
2015,10,22,09,29,10.10
2015,10,22,09,31,10.10
2015,10,22,09,32,10.10
2015,10,22,09,33,10.20
2015,10,22,09,34,10.20
2015,10,22,09,36,10.30
2015,10,22,09,37,10.30
2015,10,22,09,38,10.40
2015,10,22,09,39,10.40
2015,10,22,09,41,10.40
2015,10,22,09,42,10.40
2015,10,22,09,43,10.40
2015,10,22,09,44,10.40
2015,10,22,09,46,10.40
2015,10,22,09,47,10.40
2015,10,22,09,48,10.60
2015,10,22,09,49,10.60
2015,10,22,09,51,10.60
2015,10,22,09,52,10.60
2015,10,22,09,53,10.60
2015,10,22,09,54,10.60
2015,10,22,09,56,10.40
2015,10,22,09,57,10.60
2015,10,22,09,58,10.40
2015,10,22,09,59,10.60
2015,10,22,10,01,10.60
2015,10,22,10,02,10.60
2015,10,22,10,03,10.60
2015,10,22,10,04,10.60
2015,10,22,10,06,10.60
2015,10,22,10,07,10.60
2015,10,22,10,08,10.60
2015,10,22,10,09,10.60
2015,10,22,10,11,10.70
2015,10,22,10,12,10.70
2015,10,22,10,13,10.80
2015,10,22,10,14,10.80
2015,10,22,10,16,10.90
2015,10,22,10,17,10.90
2015,10,22,10,18,10.90
2015,10,22,10,19,10.90
2015,10,22,10,21,10.90
2015,10,22,10,22,10.90
2015,10,22,10,23,10.90
2015,10,22,10,24,10.90
2015,10,22,10,26,10.90
2015,10,22,10,27,10.90
2015,10,22,10,28,10.90
2015,10,22,10,29,11.10
2015,10,22,10,31,11.10
2015,10,22,10,32,11.10
2015,10,22,10,33,11.10
2015,10,22,10,34,11.10
2015,10,22,10,36,11.20
2015,10,22,10,37,11.20
2015,10,22,10,38,11.20
2015,10,22,10,39,11.20
2015,10,22,10,41,11.30
2015,10,22,10,42,11.30
2015,10,22,10,43,11.30
2015,10,22,10,44,11.30
2015,10,22,10,46,11.20
2015,10,22,10,47,11.10
2015,10,22,10,48,11.10
2015,10,22,10,49,11.10
2015,10,22,10,51,11.10
2015,10,22,10,52,11.10
2015,10,22,10,53,11.10
2015,10,22,10,54,11.10
2015,10,22,10,55,11.10
2015,10,22,10,56,11.10
2015,10,22,10,57,11.20
2015,10,22,10,58,11.30
2015,10,22,10,59,11.30
2015,10,22,11,00,11.40
2015,10,22,11,01,11.40
2015,10,22,11,02,11.40
2015,10,22,11,03,11.60
2015,10,22,11,04,11.60
2015,10,22,11,05,11.60
2015,10,22,11,06,11.70
2015,10,22,11,07,11.70
2015,10,22,11,08,11.80
2015,10,22,11,09,11.80
2015,10,22,11,10,11.80
2015,10,22,11,11,11.80
2015,10,22,11,12,11.80
2015,10,22,11,13,11.90
2015,10,22,11,14,11.90
2015,10,22,11,15,11.90
2015,10,22,11,16,11.90
2015,10,22,11,17,12.00
2015,10,22,11,18,12.00
2015,10,22,11,19,12.00
2015,10,22,11,20,12.00
2015,10,22,11,21,12.00
2015,10,22,11,22,12.00
2015,10,22,11,23,12.00
2015,10,22,11,24,12.10
2015,10,22,11,26,12.10
2015,10,22,11,27,12.10
2015,10,22,11,28,12.10
2015,10,22,11,29,12.10
2015,10,22,11,31,12.10
2015,10,22,11,32,12.10
2015,10,22,11,33,12.00
2015,10,22,11,34,12.00
2015,10,22,11,36,12.00
2015,10,22,11,37,12.00
2015,10,22,11,38,12.00
2015,10,22,11,39,12.00
2015,10,22,11,41,12.00
2015,10,22,11,42,12.00
2015,10,22,11,43,12.00
2015,10,22,11,44,12.00
2015,10,22,11,46,12.00
2015,10,22,11,47,12.00
2015,10,22,11,48,12.00
2015,10,22,11,49,12.10
2015,10,22,11,51,12.10
2015,10,22,11,52,12.10
2015,10,22,11,53,12.10
2015,10,22,11,54,12.10
2015,10,22,11,56,12.10
2015,10,22,11,57,12.10
2015,10,22,11,58,12.00
2015,10,22,11,59,12.00
2015,10,22,12,01,12.00
2015,10,22,12,02,12.00
2015,10,22,12,03,12.00
2015,10,22,12,04,12.00
2015,10,22,12,06,12.00
2015,10,22,12,07,12.10
2015,10,22,12,08,12.10
2015,10,22,12,09,12.10
2015,10,22,12,11,12.20
2015,10,22,12,12,12.20
2015,10,22,12,13,12.20
2015,10,22,12,14,12.20
2015,10,22,12,16,12.30
2015,10,22,12,17,12.30
2015,10,22,12,18,12.30
2015,10,22,12,19,12.30
2015,10,22,12,21,12.30
2015,10,22,12,22,12.30
2015,10,22,12,23,12.30
2015,10,22,12,24,12.30
2015,10,22,12,26,12.40
2015,10,22,12,27,12.40
2015,10,22,12,28,12.40
2015,10,22,12,29,12.40
2015,10,22,12,31,12.30
2015,10,22,12,32,12.30
2015,10,22,12,33,12.30
2015,10,22,12,34,12.30
2015,10,22,12,36,12.30
2015,10,22,12,37,12.40
2015,10,22,12,38,12.30
2015,10,22,12,39,12.30
2015,10,22,12,41,12.40
2015,10,22,12,42,12.40
2015,10,22,12,43,12.40
2015,10,22,12,44,12.40
2015,10,22,12,46,12.50
2015,10,22,12,47,12.50
2015,10,22,12,48,12.50
2015,10,22,12,49,12.50
2015,10,22,12,51,12.60
2015,10,22,12,52,12.60
2015,10,22,12,53,12.70
2015,10,22,12,54,12.70
2015,10,22,12,56,12.70
2015,10,22,12,57,12.80
2015,10,22,12,58,12.80
2015,10,22,12,59,12.80
2015,10,22,13,00,12.80
2015,10,22,13,01,12.80
2015,10,22,13,02,12.80
2015,10,22,13,03,12.80
2015,10,22,13,04,12.80
2015,10,22,13,06,12.80
2015,10,22,13,07,12.80
2015,10,22,13,08,12.80
2015,10,22,13,09,12.80
2015,10,22,13,10,12.70
2015,10,22,13,11,12.70
2015,10,22,13,12,12.80
2015,10,22,13,13,12.80
2015,10,22,13,14,12.80
2015,10,22,13,15,12.80
2015,10,22,13,16,12.80
2015,10,22,13,17,12.80
2015,10,22,13,19,12.80
2015,10,22,13,21,12.90
2015,10,22,13,22,12.90
2015,10,22,13,23,13.00
2015,10,22,13,24,13.00
2015,10,22,13,26,13.00
2015,10,22,13,27,13.00
2015,10,22,13,28,13.00
2015,10,22,13,29,13.00
2015,10,22,13,31,13.00
2015,10,22,13,32,13.10
2015,10,22,13,33,13.10
2015,10,22,13,34,13.10
2015,10,22,13,36,13.10
2015,10,22,13,37,13.20
2015,10,22,13,38,13.20
2015,10,22,13,39,13.20
2015,10,22,13,41,13.30
2015,10,22,13,42,13.30
2015,10,22,13,43,13.30
2015,10,22,13,44,13.30
2015,10,22,13,46,13.30
2015,10,22,13,47,13.30
2015,10,22,13,48,13.30
2015,10,22,13,49,13.30
2015,10,22,13,51,13.30
2015,10,22,13,52,13.30
2015,10,22,13,53,13.30
2015,10,22,13,54,13.30
2015,10,22,13,56,13.10
2015,10,22,13,57,13.10
2015,10,22,13,58,13.00
2015,10,22,13,59,12.90
2015,10,22,14,01,12.80
2015,10,22,14,02,12.80
2015,10,22,14,03,12.70
2015,10,22,14,04,12.70
2015,10,22,14,06,12.50
2015,10,22,14,07,12.40
2015,10,22,14,08,12.40
2015,10,22,14,09,12.30
2015,10,22,14,11,12.30
2015,10,22,14,12,12.30
2015,10,22,14,13,12.30
2015,10,22,14,14,12.30
2015,10,22,14,16,12.30
2015,10,22,14,17,12.30
2015,10,22,14,18,12.30
2015,10,22,14,19,12.30
2015,10,22,14,21,12.30
2015,10,22,14,22,12.40
2015,10,22,14,23,12.40
2015,10,22,14,24,12.40
2015,10,22,14,26,12.40
2015,10,22,14,27,12.40
2015,10,22,14,28,12.40
2015,10,22,14,29,12.40
2015,10,22,14,31,12.40
2015,10,22,14,32,12.40
2015,10,22,14,33,12.40
2015,10,22,14,34,12.40
2015,10,22,14,36,12.30
2015,10,22,14,37,12.30
2015,10,22,14,38,12.30
2015,10,22,14,39,12.20
2015,10,22,14,41,12.10
2015,10,22,14,42,12.10
2015,10,22,14,43,12.10
2015,10,22,14,44,12.00
2015,10,22,14,46,12.00
2015,10,22,14,47,12.00
2015,10,22,14,48,12.00
2015,10,22,14,49,12.00
2015,10,22,14,50,12.00
2015,10,22,14,51,12.00
2015,10,22,14,52,12.00
2015,10,22,14,53,12.00
2015,10,22,14,54,12.00
2015,10,22,14,55,12.00
2015,10,22,14,56,12.00
2015,10,22,14,57,12.00
2015,10,22,14,58,12.00
2015,10,22,14,59,12.00
2015,10,22,15,00,12.00
2015,10,22,15,01,12.00
2015,10,22,15,03,12.10
2015,10,22,15,04,12.20
2015,10,22,15,06,12.20
2015,10,22,15,07,12.20
2015,10,22,15,08,12.30
2015,10,22,15,09,12.30
2015,10,22,15,11,12.30
2015,10,22,15,12,12.30
2015,10,22,15,13,12.40
2015,10,22,15,14,12.40
2015,10,22,15,16,12.50
2015,10,22,15,17,12.60
2015,10,22,15,18,12.60
2015,10,22,15,19,12.70
2015,10,22,15,21,12.70
2015,10,22,15,22,12.70
2015,10,22,15,23,12.70
2015,10,22,15,24,12.70
2015,10,22,15,26,12.80
2015,10,22,15,27,12.80
2015,10,22,15,28,12.80
2015,10,22,15,29,12.80
2015,10,22,15,31,12.90
2015,10,22,15,32,12.90
2015,10,22,15,33,13.00
2015,10,22,15,34,13.10
2015,10,22,15,36,13.20
2015,10,22,15,37,13.20
2015,10,22,15,38,13.20
2015,10,22,15,39,13.30
2015,10,22,15,41,13.30
2015,10,22,15,42,13.30
2015,10,22,15,43,13.30
2015,10,22,15,44,13.30
2015,10,22,15,46,13.30
2015,10,22,15,47,13.30
2015,10,22,15,48,13.30
2015,10,22,15,49,13.30
2015,10,22,15,51,13.30
2015,10,22,15,52,13.40
2015,10,22,15,53,13.40
2015,10,22,15,54,13.40
2015,10,22,15,56,13.40
2015,10,22,15,57,13.40
2015,10,22,15,58,13.40
2015,10,22,15,59,13.40
2015,10,22,16,01,13.40
2015,10,22,16,02,13.40
2015,10,22,16,03,13.40
2015,10,22,16,04,13.40
2015,10,22,16,06,13.40
2015,10,22,16,07,13.40
2015,10,22,16,08,13.30
2015,10,22,16,09,13.30
2015,10,22,16,11,13.30
2015,10,22,16,12,13.30
2015,10,22,16,13,13.30
2015,10,22,16,14,13.30
2015,10,22,16,16,13.30
2015,10,22,16,17,13.30
2015,10,22,16,18,13.30
2015,10,22,16,19,13.20
2015,10,22,16,21,13.20
2015,10,22,16,22,13.20
2015,10,22,16,23,13.10
2015,10,22,16,24,13.10
2015,10,22,16,26,13.10
2015,10,22,16,27,13.00
2015,10,22,16,28,13.00
2015,10,22,16,29,13.00
2015,10,22,16,31,12.90
2015,10,22,16,32,12.90
2015,10,22,16,33,12.90
2015,10,22,16,34,12.90
2015,10,22,16,36,12.80
2015,10,22,16,37,12.80
2015,10,22,16,38,12.80
2015,10,22,16,39,12.80
2015,10,22,16,41,12.70
2015,10,22,16,42,12.70
2015,10,22,16,43,12.60
2015,10,22,16,44,12.60
2015,10,22,16,46,12.60
2015,10,22,16,47,12.60
2015,10,22,16,48,12.60
2015,10,22,16,49,12.60
2015,10,22,16,51,12.60
2015,10,22,16,52,12.50
2015,10,22,16,53,12.50
2015,10,22,16,54,12.50
2015,10,22,16,55,12.50
2015,10,22,16,56,12.50
2015,10,22,16,57,12.50
2015,10,22,16,58,12.50
2015,10,22,16,59,12.50
2015,10,22,17,00,12.40
2015,10,22,17,01,12.40
2015,10,22,17,02,12.40
2015,10,22,17,03,12.40
2015,10,22,17,04,12.40
2015,10,22,17,06,12.30
2015,10,22,17,07,12.30
2015,10,22,17,08,12.30
2015,10,22,17,09,12.30
2015,10,22,17,10,12.30
2015,10,22,17,11,12.30
2015,10,22,17,12,12.30
2015,10,22,17,13,12.30
2015,10,22,17,14,12.30
2015,10,22,17,15,12.30
2015,10,22,17,16,12.20
2015,10,22,17,17,12.20
2015,10,22,17,18,12.20
2015,10,22,17,19,12.10
2015,10,22,17,21,12.10
2015,10,22,17,22,12.00
2015,10,22,17,23,12.00
2015,10,22,17,24,12.00
2015,10,22,17,26,11.90
2015,10,22,17,27,11.90
2015,10,22,17,28,11.90
2015,10,22,17,29,11.80
2015,10,22,17,31,11.80
2015,10,22,17,32,11.80
2015,10,22,17,33,11.80
2015,10,22,17,34,11.80
2015,10,22,17,36,11.70
2015,10,22,17,37,11.70
2015,10,22,17,38,11.70
2015,10,22,17,39,11.60
2015,10,22,17,41,11.60
2015,10,22,17,42,11.60
2015,10,22,17,43,11.60
2015,10,22,17,44,11.60
2015,10,22,17,46,11.60
2015,10,22,17,47,11.60
2015,10,22,17,48,11.60
2015,10,22,17,49,11.60
2015,10,22,17,51,11.40
2015,10,22,17,52,11.40
2015,10,22,17,53,11.40
2015,10,22,17,54,11.40
2015,10,22,17,56,11.40
2015,10,22,17,57,11.40
2015,10,22,17,58,11.40
2015,10,22,17,59,11.40
2015,10,22,18,01,11.30
2015,10,22,18,02,11.30
2015,10,22,18,03,11.30
2015,10,22,18,04,11.30
2015,10,22,18,06,11.30
2015,10,22,18,07,11.20
2015,10,22,18,08,11.20
2015,10,22,18,09,11.20
2015,10,22,18,11,11.20
2015,10,22,18,12,11.10
2015,10,22,18,13,11.10
2015,10,22,18,14,11.10
2015,10,22,18,16,11.10
2015,10,22,18,17,11.10
2015,10,22,18,18,11.10
2015,10,22,18,19,11.10
2015,10,22,18,21,11.10
2015,10,22,18,22,11.10
2015,10,22,18,23,11.10
2015,10,22,18,24,11.10
2015,10,22,18,26,11.10
2015,10,22,18,27,10.90
2015,10,22,18,28,10.90
2015,10,22,18,29,10.90
2015,10,22,18,31,10.90
2015,10,22,18,32,10.90
2015,10,22,18,33,10.90
2015,10,22,18,34,10.90
2015,10,22,18,36,10.90
2015,10,22,18,37,10.90
2015,10,22,18,38,10.80
2015,10,22,18,39,10.80
2015,10,22,18,41,10.80
2015,10,22,18,42,10.70
2015,10,22,18,43,10.70
2015,10,22,18,44,10.70
2015,10,22,18,46,10.60
2015,10,22,18,47,10.60
2015,10,22,18,48,10.60
2015,10,22,18,49,10.60
2015,10,22,18,51,10.60
2015,10,22,18,52,10.60
2015,10,22,18,53,10.60
2015,10,22,18,54,10.60
2015,10,22,18,56,10.60
2015,10,22,18,57,10.60
2015,10,22,18,58,10.60
2015,10,22,18,59,10.40
2015,10,22,19,01,10.40
2015,10,22,19,02,10.40
2015,10,22,19,03,10.40
2015,10,22,19,04,10.40
2015,10,22,19,06,10.40
2015,10,22,19,07,10.30
2015,10,22,19,08,10.30
2015,10,22,19,09,10.30
2015,10,22,19,11,10.30
2015,10,22,19,12,10.20
2015,10,22,19,13,10.20
2015,10,22,19,14,10.20
2015,10,22,19,16,10.20
2015,10,22,19,17,10.20
2015,10,22,19,18,10.20
2015,10,22,19,19,10.20
2015,10,22,19,20,10.20
2015,10,22,19,21,10.10
2015,10,22,19,22,10.10
2015,10,22,19,23,10.10
2015,10,22,19,24,10.10
2015,10,22,19,26,10.10
2015,10,22,19,27,10.10
2015,10,22,19,28,10.10
2015,10,22,19,29,10.10
2015,10,22,19,30,10.10
2015,10,22,19,31,10.10
2015,10,22,19,32,10.10
2015,10,22,19,33,10.10
2015,10,22,19,34,10.10
2015,10,22,19,35,10.10
2015,10,22,19,36,10.10
2015,10,22,19,37,10.10
2015,10,22,19,38,10.10
2015,10,22,19,39,10.10
2015,10,22,19,40,10.10
2015,10,22,19,41,10.10
2015,10,22,19,42,10.10
2015,10,22,19,43,10.10
2015,10,22,19,44,10.10
2015,10,22,19,45,10.10
2015,10,22,19,46,10.10
2015,10,22,19,48,9.90
2015,10,22,19,49,9.90
2015,10,22,19,51,9.90
2015,10,22,19,52,9.90
2015,10,22,19,53,9.90
2015,10,22,19,54,9.90
2015,10,22,19,56,9.90
2015,10,22,19,57,9.90
2015,10,22,19,58,9.90
2015,10,22,19,59,9.90
2015,10,22,20,01,9.90
2015,10,22,20,02,9.90
2015,10,22,20,03,9.90
2015,10,22,20,04,9.90
2015,10,22,20,06,9.90
2015,10,22,20,07,9.90
2015,10,22,20,08,9.90
2015,10,22,20,09,9.90
2015,10,22,20,11,9.90
2015,10,22,20,12,9.90
2015,10,22,20,13,9.90
2015,10,22,20,14,9.90
2015,10,22,20,16,9.90
2015,10,22,20,17,9.90
2015,10,22,20,18,9.90
2015,10,22,20,19,9.90
2015,10,22,20,21,9.90
2015,10,22,20,22,9.90
2015,10,22,20,23,9.90
2015,10,22,20,24,9.90
2015,10,22,20,26,9.90
2015,10,22,20,27,9.80
2015,10,22,20,28,9.80
2015,10,22,20,29,9.80
2015,10,22,20,31,9.80
2015,10,22,20,32,9.80
2015,10,22,20,33,9.80
2015,10,22,20,34,9.80
2015,10,22,20,36,9.80
2015,10,22,20,37,9.80
2015,10,22,20,38,9.80
2015,10,22,20,39,9.80
2015,10,22,20,41,9.70
2015,10,22,20,42,9.70
2015,10,22,20,43,9.70
2015,10,22,20,44,9.70
2015,10,22,20,46,9.70
2015,10,22,20,47,9.70
2015,10,22,20,48,9.70
2015,10,22,20,49,9.70
2015,10,22,20,51,9.70
2015,10,22,20,52,9.70
2015,10,22,20,53,9.70
2015,10,22,20,54,9.70
2015,10,22,20,56,9.70
2015,10,22,20,57,9.70
2015,10,22,20,58,9.70
2015,10,22,20,59,9.70
2015,10,22,21,01,9.70
2015,10,22,21,02,9.70
2015,10,22,21,03,9.70
2015,10,22,21,04,9.70
2015,10,22,21,06,9.60
2015,10,22,21,07,9.60
2015,10,22,21,08,9.60
2015,10,22,21,09,9.60
2015,10,22,21,11,9.60
2015,10,22,21,12,9.60
2015,10,22,21,13,9.60
2015,10,22,21,14,9.60
2015,10,22,21,16,9.60
2015,10,22,21,17,9.50
2015,10,22,21,18,9.50
2015,10,22,21,19,9.50
2015,10,22,21,21,9.50
2015,10,22,21,22,9.50
2015,10,22,21,23,9.40
2015,10,22,21,24,9.40
2015,10,22,21,26,9.40
2015,10,22,21,27,9.40
2015,10,22,21,28,9.40
2015,10,22,21,29,9.40
2015,10,22,21,31,9.40
2015,10,22,21,32,9.50
2015,10,22,21,33,9.40
2015,10,22,21,34,9.40
2015,10,22,21,36,9.40
2015,10,22,21,37,9.40
2015,10,22,21,38,9.40
2015,10,22,21,39,9.40
2015,10,22,21,41,9.40
2015,10,22,21,42,9.30
2015,10,22,21,43,9.30
2015,10,22,21,44,9.30
2015,10,22,21,46,9.30
2015,10,22,21,47,9.20
2015,10,22,21,48,9.20
2015,10,22,21,49,9.20
2015,10,22,21,51,9.20
2015,10,22,21,52,9.10
2015,10,22,21,53,9.10
2015,10,22,21,54,9.00
2015,10,22,21,55,9.00
2015,10,22,21,56,9.00
2015,10,22,21,57,9.00
2015,10,22,21,58,8.90
2015,10,22,21,59,8.90
2015,10,22,22,00,8.90
2015,10,22,22,01,8.80
2015,10,22,22,02,8.80
2015,10,22,22,03,8.80
2015,10,22,22,04,8.80
2015,10,22,22,05,8.80
2015,10,22,22,06,8.80
2015,10,22,22,07,8.80
2015,10,22,22,08,8.80